Punta Gorda, FL

9:58 AM EDT on July 21, 2017 (GMT -0400)
Charlotte County

Weather History for KPGD - November, 2011

Change the Weather History Date:

Wednesday, November 16, 2011

  Actual Average Record
Temperature  
Mean Temperature 78 °F -  
Max Temperature 86 °F 78 °F 86 °F (1998)
Min Temperature 69 °F 57 °F 44 °F (2007)
Cooling Degree Days 12    
Growing Degree Days 28 (Base 50)    
Moisture  
Dew Point 71 °F    
Average Humidity 84    
Maximum Humidity 100    
Minimum Humidity 59    
Precipitation  
Precipitation 0.00 in - - ()
Sea Level Pressure  
Sea Level Pressure 30.04 in    
Wind  
Wind Speed 6 mph (South)    
Max Wind Speed 16 mph    
Max Gust Speed -    
Visibility 9 miles    
Events Fog    
Averages and records for this station are not official NWS values.
T = Trace of Precipitation, MM = Missing Value Source: NWS Daily Summary

Daily Weather History Graph

Daily Weather History Graph

Search for Another Location

Airport or City:

Trip Planner

Search our weather history database for the weather conditions in past years. The results will help you decide how hot, cold, wet, or windy it might be!

Date:

Astronomy

Nov. 16, 2011 Rise Set
Actual Time 6:48 AM EST 5:36 PM EST
Civil Twilight 6:23 AM EST 6:01 PM EST
Nautical Twilight 5:55 AM EST 6:29 PM EST
Astronomical Twilight 5:27 AM EST 6:57 PM EST
Moon 10:44 PM EST (11/16) 11:25 AM EST (11/16)
Length of Visible Light 11h 37m
Length of Day
10h 48m
Waning Gibbous, 70% of the Moon is Illuminated
Nov 16
Waning Gibbous
Nov 18
Last Quarter
Nov 25
New
Dec 2
First Quarter
Dec 10
Full

Hourly Weather History & Observations

Time (EST) Temp. Heat Index Dew Point Humidity Pressure Visibility Wind Dir Wind Speed Gust Speed Precip Events Conditions
12:27 AM 69.8 °F - 69.8 °F 100% 30.07 in 0.8 mi Calm Calm - N/A   Mist
12:53 AM 70.0 °F - 69.1 °F 97% 30.07 in 0.5 mi Calm Calm - N/A Fog Fog
1:24 AM 69.8 °F - 68.0 °F 94% 30.05 in 2.0 mi ESE 6.9 mph - N/A   Mostly Cloudy
1:29 AM 71.6 °F - 69.8 °F 94% 30.04 in 9.0 mi SE 8.1 mph - N/A   Scattered Clouds
1:48 AM 73.4 °F - 71.6 °F 94% 30.03 in 10.0 mi SE 9.2 mph - N/A   Scattered Clouds
2:53 AM 73.9 °F - 73.0 °F 97% 30.01 in 8.0 mi SSE 12.7 mph - N/A   Overcast
3:53 AM 75.0 °F - 73.0 °F 94% 30.01 in 9.0 mi SSE 12.7 mph - N/A   Overcast
4:53 AM 75.0 °F - 72.0 °F 90% 30.00 in 10.0 mi SSE 16.1 mph - N/A   Overcast
5:53 AM 75.0 °F - 72.0 °F 90% 30.02 in 10.0 mi SSE 10.4 mph - N/A   Overcast
6:12 AM 75.2 °F - 71.6 °F 89% 30.02 in 10.0 mi SSE 6.9 mph - N/A   Overcast
6:53 AM 75.0 °F - 72.0 °F 90% 30.04 in 10.0 mi SSE 4.6 mph - N/A   Overcast
7:53 AM 75.9 °F - 73.0 °F 91% 30.06 in 10.0 mi Calm Calm - N/A   Overcast
8:53 AM 79.0 °F - 73.0 °F 82% 30.09 in 10.0 mi South 6.9 mph - N/A   Overcast
9:53 AM 81.0 °F 85.2 °F 72.0 °F 74% 30.09 in 10.0 mi South 9.2 mph - N/A   Overcast
10:38 AM 82.4 °F 87.2 °F 71.6 °F 70% 30.08 in 10.0 mi South 11.5 mph - N/A   Scattered Clouds
10:53 AM 82.0 °F 86.3 °F 71.1 °F 69% 30.08 in 10.0 mi South 8.1 mph - N/A   Mostly Cloudy
11:53 AM 84.0 °F 88.4 °F 70.0 °F 63% 30.06 in 10.0 mi SW 9.2 mph - N/A   Mostly Cloudy
12:53 PM 86.0 °F 90.7 °F 70.0 °F 59% 30.03 in 10.0 mi SW 13.8 mph - N/A   Partly Cloudy
1:53 PM 84.9 °F 88.8 °F 69.1 °F 59% 30.01 in 10.0 mi SW 8.1 mph - N/A   Scattered Clouds
2:53 PM 84.0 °F 89.0 °F 71.1 °F 65% 30.00 in 10.0 mi WSW 12.7 mph - N/A   Clear
3:53 PM 82.9 °F 87.5 °F 71.1 °F 67% 29.99 in 10.0 mi WSW 11.5 mph - N/A   Clear
4:53 PM 81.0 °F 84.9 °F 71.1 °F 72% 30.00 in 10.0 mi WSW 9.2 mph - N/A   Clear
5:53 PM 77.0 °F - 72.0 °F 84% 30.01 in 10.0 mi WSW 6.9 mph - N/A   Clear
6:53 PM 75.9 °F - 72.0 °F 87% 30.02 in 10.0 mi SW 3.5 mph - N/A   Clear
7:53 PM 73.9 °F - 71.1 °F 91% 30.03 in 10.0 mi Calm Calm - N/A   Clear
8:53 PM 71.1 °F - 69.1 °F 93% 30.03 in 9.0 mi South 5.8 mph - N/A   Clear
9:53 PM 71.1 °F - 69.1 °F 93% 30.04 in 10.0 mi South 3.5 mph - N/A   Unknown
10:53 PM 71.1 °F - 69.1 °F 93% 30.04 in 8.0 mi South 3.5 mph - N/A   Scattered Clouds
11:53 PM 72.0 °F - 70.0 °F 93% 30.04 in 8.0 mi Calm Calm - N/A   Unknown